Location: Esterri de Aneo
(42.6284°N, 1.1223°E)
Time: 00:54:12
(UTC+00:00)

Cosmos 1655 Rocket - Pass Details

Date: 11 December 2025
Orbit: 969 x 1006 km, 83.0° (Epoch: 19 January)

Event Time Altitude Azimuth Distance (km) Brightness Sun altitude
Rises 17:06:11 0° 359° (N) 3,683 6.8 -8.0°
Reaches altitude 10° 17:08:56 10° 8° (N) 2,728 6.0 -8.5°
Maximum altitude 17:14:39 37° 74° (ENE) 1,479 4.5 -9.5°
Drops below altitude 10° 17:20:18 10° 140° (SE) 2,705 6.2 -10.4°
Sets 17:23:00 0° 149° (SSE) 3,649 6.9 -10.9°
